Brenham, TX

2:48 AM CDT on September 19, 2019 (GMT -0500)
Brenham

Weather History for K11R - August, 2019

Change the Weather History Date:

Saturday, August 24, 2019

  Actual Average (WUND) Record (WUND)
Temperature  
Mean Temperature 86 °F -  
Max Temperature 97 °F - - (-1)
Min Temperature 75 °F - - (-1)
Cooling Degree Days 21    
Growing Degree Days 36 (Base 50)    
Moisture  
Dew Point 74 °F    
Average Humidity 73    
Maximum Humidity 100    
Minimum Humidity 40    
Precipitation  
Precipitation 0.00 in - - ()
Sea Level Pressure  
Sea Level Pressure 29.91 in    
Wind  
Wind Speed 2 mph ()    
Max Wind Speed 9 mph    
Max Gust Speed -    
Visibility 10.0 miles    
Events Thunderstorm    
Averages and records for this station are not official NWS values.
T = Trace of Precipitation, MM = Missing Value Source: Averaged Metar Reports

Daily Weather History Graph

Daily Weather History Graph

Search for Another Location

Airport or City:

Astronomy

Aug. 24, 2019 Rise Set
Actual Time 6:57 AM CDT 7:57 PM CDT
Civil Twilight 6:32 AM CDT 8:22 PM CDT
Nautical Twilight 6:03 AM CDT 8:51 PM CDT
Astronomical Twilight 5:33 AM CDT 9:21 PM CDT
Moon 1:00 AM CDT (8/24) 3:03 PM CDT (8/24)
Length of Visible Light 13h 49m
Length of Day
12h 59m
Last Quarter, 39% of the Moon is Illuminated
Aug 24
Last Quarter
Aug 30
New
Sep 5
First Quarter
Sep 13
Full
Sep 21
Last Quarter

Hourly Weather History & Observations

Time (CDT) Temp. Heat Index Dew Point Humidity Pressure Visibility Wind Dir Wind Speed Gust Speed Precip Events Conditions
12:15 AM 77.9 °F - 77.0 °F 97% 29.92 in 10.0 mi Calm Calm - N/A   Scattered Clouds
12:35 AM 77.9 °F - 77.9 °F 100% 29.92 in 10.0 mi Calm Calm - N/A   Mostly Cloudy
12:55 AM 77.9 °F - 77.9 °F 100% 29.92 in 10.0 mi South 3.5 mph - N/A   Scattered Clouds
1:15 AM 77.5 °F - 77.5 °F 100% 29.93 in 10.0 mi Calm Calm - N/A   Clear
1:35 AM 77.2 °F - 77.2 °F 100% 29.93 in 10.0 mi Calm Calm - N/A   Scattered Clouds
1:55 AM 77.0 °F - 77.0 °F 100% 29.93 in 10.0 mi Calm Calm - N/A   Mostly Cloudy
2:15 AM 77.2 °F - 77.2 °F 100% 29.93 in 10.0 mi Calm Calm - N/A   Mostly Cloudy
2:35 AM 77.0 °F - 77.0 °F 100% 29.93 in 10.0 mi Calm Calm - N/A   Mostly Cloudy
2:55 AM 76.6 °F - 76.6 °F 100% 29.94 in 10.0 mi Calm Calm - N/A   Mostly Cloudy
3:15 AM 76.5 °F - 76.5 °F 100% 29.94 in 10.0 mi Calm Calm - N/A   Mostly Cloudy
3:35 AM 76.3 °F - 76.3 °F 100% 29.94 in 10.0 mi Calm Calm - N/A   Mostly Cloudy
3:55 AM 76.1 °F - 76.1 °F 100% 29.94 in 7.0 mi Calm Calm - N/A   Scattered Clouds
4:15 AM 76.1 °F - 76.1 °F 100% 29.94 in 10.0 mi Calm Calm - N/A   Scattered Clouds
4:35 AM 76.1 °F - 76.1 °F 100% 29.94 in 10.0 mi NE 3.5 mph - N/A   Scattered Clouds
4:55 AM 76.1 °F - 76.1 °F 100% 29.94 in 10.0 mi ENE 3.5 mph - N/A   Scattered Clouds
5:15 AM 75.7 °F - 75.7 °F 100% 29.94 in 10.0 mi NE 3.5 mph - N/A   Mostly Cloudy
5:35 AM 75.6 °F - 75.6 °F 100% 29.94 in 10.0 mi Calm Calm - N/A   Mostly Cloudy
5:55 AM 75.7 °F - 75.7 °F 100% 29.94 in 10.0 mi Calm Calm - N/A   Mostly Cloudy
6:15 AM 75.9 °F - 75.9 °F 100% 29.93 in 10.0 mi NNE 3.5 mph - N/A   Light Drizzle
6:35 AM 75.6 °F - 75.6 °F 100% 29.93 in 10.0 mi Calm Calm - N/A   Mostly Cloudy
6:55 AM 75.6 °F - 75.6 °F 100% 29.93 in 10.0 mi Calm Calm - N/A   Mostly Cloudy
7:15 AM 75.4 °F - 75.4 °F 100% 29.93 in 10.0 mi Calm Calm - N/A   Scattered Clouds
7:35 AM 75.6 °F - 75.6 °F 100% 29.93 in 10.0 mi Calm Calm - N/A   Clear
7:55 AM 76.5 °F - 76.5 °F 100% 29.94 in 10.0 mi Calm Calm - N/A   Clear
8:15 AM 77.7 °F - 77.7 °F 100% 29.95 in 10.0 mi East 3.5 mph - N/A   Clear
8:35 AM 79.3 °F - 79.2 °F 99% 29.95 in 10.0 mi East 3.5 mph - N/A   Clear
8:55 AM 81.1 °F 89.8 °F 79.2 °F 94% 29.94 in 10.0 mi ESE 4.6 mph - N/A   Clear
9:15 AM 82.9 °F 91.2 °F 76.1 °F 80% 29.93 in 10.0 mi East 3.5 mph - N/A   Clear
9:35 AM 84.0 °F 92.6 °F 75.6 °F 76% 29.93 in 10.0 mi Calm Calm - N/A   Clear
9:55 AM 84.9 °F 93.7 °F 75.6 °F 73% 29.94 in 10.0 mi ESE 3.5 mph - N/A   Scattered Clouds
10:15 AM 86.7 °F 95.9 °F 75.0 °F 68% 29.95 in 10.0 mi Calm Calm - N/A   Scattered Clouds
10:35 AM 87.6 °F 96.7 °F 74.7 °F 65% 29.95 in 10.0 mi SE 4.6 mph - N/A   Scattered Clouds
10:55 AM 87.4 °F 95.3 °F 73.6 °F 63% 29.94 in 10.0 mi Calm Calm - N/A   Mostly Cloudy
11:15 AM 88.5 °F 97.8 °F 74.5 °F 63% 29.94 in 10.0 mi East 4.6 mph - N/A   Mostly Cloudy
11:35 AM 90.0 °F 99.0 °F 73.8 °F 59% 29.93 in 10.0 mi NE 4.6 mph - N/A   Scattered Clouds
11:55 AM 90.9 °F 98.9 °F 72.9 °F 55% 29.93 in 10.0 mi ESE 3.5 mph - N/A   Clear
12:15 PM 91.4 °F 99.5 °F 72.7 °F 54% 29.92 in 10.0 mi ENE 4.6 mph - N/A   Scattered Clouds
12:35 PM 91.6 °F 98.8 °F 71.6 °F 52% 29.92 in 10.0 mi Calm Calm - N/A   Clear
12:55 PM 93.0 °F 100.7 °F 71.6 °F 50% 29.92 in 10.0 mi South 3.5 mph - N/A   Scattered Clouds
1:15 PM 95.0 °F 103.2 °F 71.8 °F 47% 29.91 in 10.0 mi ESE 5.8 mph - N/A   Mostly Cloudy
1:35 PM 94.1 °F 101.8 °F 71.8 °F 48% 29.90 in 10.0 mi Calm Calm - N/A   Mostly Cloudy
1:55 PM 92.7 °F 99.9 °F 71.4 °F 50% 29.90 in 10.0 mi ENE 4.6 mph - N/A   Scattered Clouds
2:15 PM 93.9 °F 101.5 °F 71.2 °F 48% 29.89 in 10.0 mi ESE 6.9 mph - N/A   Scattered Clouds
2:35 PM 94.6 °F 101.8 °F 70.7 °F 46% 29.88 in 10.0 mi Calm Calm - N/A   Mostly Cloudy
2:55 PM 95.2 °F 101.7 °F 70.0 °F 44% 29.87 in 10.0 mi ESE 5.8 mph - N/A   Overcast
3:15 PM 94.3 °F 101.6 °F 71.4 °F 47% 29.87 in 10.0 mi East 6.9 mph - N/A   Scattered Clouds
3:35 PM 95.5 °F 103.0 °F 71.1 °F 45% 29.85 in 10.0 mi SE 4.6 mph - N/A   Clear
3:55 PM 96.4 °F 103.7 °F 70.9 °F 43% 29.84 in 10.0 mi ESE 6.9 mph - N/A   Clear
4:15 PM 95.9 °F 102.5 °F 70.2 °F 43% 29.84 in 10.0 mi SE 4.6 mph - N/A   Clear
4:35 PM 97.7 °F 105.0 °F 70.2 °F 41% 29.83 in 10.0 mi South 9.2 mph - N/A   Scattered Clouds
4:55 PM 97.2 °F 103.2 °F 69.3 °F 40% 29.82 in 10.0 mi South 8.1 mph - N/A   Scattered Clouds
5:15 PM 97.3 °F 103.6 °F 69.1 °F 40% 29.82 in 10.0 mi SSE 4.6 mph - N/A   Scattered Clouds
5:55 PM 95.2 °F 101.0 °F 69.4 °F 43% 29.82 in 10.0 mi Calm Calm - N/A   Overcast
6:15 PM 94.6 °F 100.0 °F 69.3 °F 43% 29.83 in 10.0 mi Calm Calm - N/A   Overcast
6:35 PM 94.1 °F 100.0 °F 70.0 °F 45% 29.83 in 10.0 mi Calm Calm - N/A   Mostly Cloudy
6:55 PM 93.6 °F 100.1 °F 70.3 °F 47% 29.83 in 10.0 mi Calm Calm - N/A   Scattered Clouds
7:15 PM 93.2 °F 99.9 °F 71.1 °F 48% 29.84 in 10.0 mi SW 6.9 mph - N/A   Scattered Clouds
7:35 PM 91.4 °F 98.4 °F 71.6 °F 52% 29.85 in 10.0 mi SW 3.5 mph - N/A   Scattered Clouds
7:55 PM 91.4 °F 98.9 °F 72.0 °F 53% 29.86 in 10.0 mi Calm Calm - N/A   Scattered Clouds
8:15 PM 90.5 °F 99.2 °F 73.6 °F 57% 29.87 in 10.0 mi SSE 5.8 mph - N/A   Mostly Cloudy
8:35 PM 90.0 °F 100.7 °F 75.2 °F 62% 29.87 in 10.0 mi South 5.8 mph - N/A   Scattered Clouds
8:55 PM 89.1 °F 99.6 °F 75.6 °F 64% 29.87 in 10.0 mi South 5.8 mph - N/A   Scattered Clouds
9:15 PM 88.7 °F 99.3 °F 75.6 °F 65% 29.88 in 10.0 mi SSW 4.6 mph - N/A   Scattered Clouds
9:35 PM 88.7 °F 99.3 °F 75.4 °F 65% 29.89 in 10.0 mi SSW 6.9 mph - N/A   Scattered Clouds
9:55 PM 88.0 °F 99.1 °F 76.1 °F 68% 29.90 in 10.0 mi SSW 9.2 mph - N/A   Scattered Clouds
10:15 PM 86.9 °F 97.8 °F 76.6 °F 71% 29.90 in 10.0 mi SW 6.9 mph - N/A   Scattered Clouds
10:35 PM 86.0 °F 96.4 °F 76.5 °F 73% 29.91 in 10.0 mi SW 4.6 mph - N/A Thunderstorm Scattered Clouds
10:55 PM 85.3 °F 94.6 °F 75.7 °F 73% 29.91 in 10.0 mi WSW 5.8 mph - N/A   Clear
11:15 PM 84.6 °F 93.5 °F 75.7 °F 75% 29.91 in 10.0 mi SW 5.8 mph - N/A Thunderstorm Clear
11:35 PM 84.2 °F 93.4 °F 76.1 °F 77% 29.92 in 10.0 mi SW 5.8 mph - N/A Thunderstorm Mostly Cloudy
11:55 PM 84.2 °F 93.4 °F 76.3 °F 77% 29.92 in 10.0 mi SW 3.5 mph - N/A Thunderstorm Overcast